"FRM_AIS_EDR_2228.DAT           ",2005-10-08T13:56:26.96 ,"1/0076859781.59314",    0,    0,  274896,"AIS","B1","B1","B1","B1","PISd",0,0,0,0,"B1", 0,15,   0, 0,    0,"AIS","N/A    ","OK ","OK ",    001175.331,    -083.527,    -062.006,    0002.946,    0073.632
"FRM_AIS_EDR_2228.DAT           ",2005-10-08T13:56:34.51 ,"1/0076859789.29378",    0,    1,  274896,"AIS","B1","B1","B1","B1","PISd",0,0,0,0,"B1", 0,15,   0, 0,    0,"AIS","N/A    ","OK ","OK ",    001164.948,    -083.805,    -060.455,    0003.051,    0073.314
"FRM_AIS_EDR_2228.DAT           ",2005-10-08T13:56:42.05 ,"1/0076859796.64977",    0,    2,  274896,"AIS","B1","B1","B1","B1","PISd",0,0,0,0,"B1", 0,15,   0, 0,    0,"AIS","N/A    ","OK ","OK ",    001154.596,    -084.079,    -058.748,    0003.167,    0072.995
"FRM_AIS_EDR_2228.DAT           ",2005-10-08T13:56:49.59 ,"1/0076859804.35040",    0,    3,  274896,"AIS","B1","B1","B1","B1","PISd",0,0,0,0,"B1", 0,15,   0, 0,    0,"AIS","N/A    ","OK ","OK ",    001144.275,    -084.349,    -056.866,    0003.294,    0072.674
"FRM_AIS_EDR_2228.DAT           ",2005-10-08T13:56:57.13 ,"1/0076859812.05104",    0,    4,  274896,"AIS","B1","B1","B1","B1","PISd",0,0,0,0,"B1", 0,15,   0, 0,    0,"AIS","N/A    ","OK ","OK ",    001133.986,    -084.612,    -054.785,    0003.435,    0072.351
"FRM_AIS_EDR_2228.DAT           ",2005-10-08T13:57:04.68 ,"1/0076859819.40703",    0,    5,  274896,"AIS","B1","B1","B1","B1","PISd",0,0,0,0,"B1", 0,15,   0, 0,    0,"AIS","N/A    ","OK ","OK ",    001123.729,    -084.869,    -052.480,    0003.591,    0072.027
"FRM_AIS_EDR_2228.DAT           ",2005-10-08T13:57:12.22 ,"1/0076859827.10766",    0,    6,  274896,"AIS","B1","B1","B1","B1","PISd",0,0,0,0,"B1", 0,15,   0, 0,    0,"AIS","N/A    ","OK ","OK ",    001113.505,    -085.118,    -049.922,    0003.763,    0071.702
"FRM_AIS_EDR_2228.DAT           ",2005-10-08T13:57:19.76 ,"1/0076859834.46366",    0,    7,  274896,"AIS","B1","B1","B1","B1","PISd",0,0,0,0,"B1", 0,15,   0, 0,    0,"AIS","N/A    ","OK ","OK ",    001103.315,    -085.357,    -047.080,    0003.955,    0071.375
"FRM_AIS_EDR_2228.DAT           ",2005-10-08T13:57:27.31 ,"1/0076859842.16429",    0,    8,  274896,"AIS","B1","B1","B1","B1","PISd",0,0,0,0,"B1", 0,15,   0, 0,    0,"AIS","N/A    ","OK ","OK ",    001093.158,    -085.584,    -043.920,    0004.168,    0071.047
"FRM_AIS_EDR_2228.DAT           ",2005-10-08T13:57:34.85 ,"1/0076859849.52028",    0,    9,  274896,"AIS","B1","B1","B1","B1","PISd",0,0,0,0,"B1", 0,15,   0, 0,    0,"AIS","N/A    ","OK ","OK ",    001083.035,    -085.797,    -040.411,    0004.404,    0070.717
"FRM_AIS_EDR_2228.DAT           ",2005-10-08T13:57:42.39 ,"1/0076859857.22092",    0,   10,  274896,"AIS","B1","B1","B1","B1","PISd",0,0,0,0,"B1", 0,15,   0, 0,    0,"AIS","N/A    ","OK ","OK ",    001072.947,    -085.993,    -036.523,    0004.665,    0070.386
"FRM_AIS_EDR_2228.DAT           ",2005-10-08T13:57:49.94 ,"1/0076859864.57691",    0,   11,  274896,"AIS","B1","B1","B1","B1","PISd",0,0,0,0,"B1", 0,15,   0, 0,    0,"AIS","N/A    ","OK ","OK ",    001062.895,    -086.169,    -032.234,    0004.953,    0070.053
"FRM_AIS_EDR_2228.DAT           ",2005-10-08T13:57:57.48 ,"1/0076859872.27754",    0,   12,  274896,"AIS","B1","B1","B1","B1","PISd",0,0,0,0,"B1", 0,15,   0, 0,    0,"AIS","N/A    ","OK ","OK ",    001052.878,    -086.322,    -027.537,    0005.268,    0069.719
"FRM_AIS_EDR_2228.DAT           ",2005-10-08T13:58:05.02 ,"1/0076859879.63354",    0,   13,  274896,"AIS","B1","B1","B1","B1","PISd",0,0,0,0,"B1", 0,15,   0, 0,    0,"AIS","N/A    ","OK ","OK ",    001042.898,    -086.449,    -022.444,    0005.610,    0069.383
"FRM_AIS_EDR_2228.DAT           ",2005-10-08T13:58:12.57 ,"1/0076859887.33417",    0,   14,  274896,"AIS","B1","B1","B1","B1","PISd",0,0,0,0,"B1", 0,15,   0, 0,    0,"AIS","N/A    ","OK ","OK ",    001032.954,    -086.546,    -016.995,    0005.975,    0069.046
"FRM_AIS_EDR_2228.DAT           ",2005-10-08T13:58:20.11 ,"1/0076859895.03480",    0,   15,  274896,"AIS","B1","B1","B1","B1","PISd",0,0,0,0,"B1", 0,15,   0, 0,    0,"AIS","N/A    ","OK ","OK ",    001023.048,    -086.609,    -011.259,    0006.359,    0068.707
"FRM_AIS_EDR_2228.DAT           ",2005-10-08T13:58:27.65 ,"1/0076859902.39080",    0,   16,  274896,"AIS","B1","B1","B1","B1","PISd",0,0,0,0,"B1", 0,15,   0, 0,    0,"AIS","N/A    ","OK ","OK ",    001013.180,    -086.638,    -005.338,    0006.756,    0068.367
"FRM_AIS_EDR_2228.DAT           ",2005-10-08T13:58:35.20 ,"1/0076859910.09143",    0,   17,  274896,"AIS","B1","B1","B1","B1","PISd",0,0,0,0,"B1", 0,15,   0, 0,    0,"AIS","N/A    ","OK ","OK ",    001003.350,    -086.630,    0000.646,    0007.157,    0068.025
"FRM_AIS_EDR_2228.DAT           ",2005-10-08T13:58:42.74 ,"1/0076859917.44742",    0,   18,  274896,"AIS","B1","B1","B1","B1","PISd",0,0,0,0,"B1", 0,15,   0, 0,    0,"AIS","N/A    ","OK ","OK ",    000993.559,    -086.585,    0006.562,    0007.554,    0067.682
"FRM_AIS_EDR_2228.DAT           ",2005-10-08T13:58:50.28 ,"1/0076859925.14806",    0,   19,  274896,"AIS","B1","B1","B1","B1","PISd",0,0,0,0,"B1", 0,15,   0, 0,    0,"AIS","N/A    ","OK ","OK ",    000983.808,    -086.503,    0012.289,    0007.938,    0067.338
"FRM_AIS_EDR_2228.DAT           ",2005-10-08T13:58:57.83 ,"1/0076859932.50405",    0,   20,  274896,"AIS","B1","B1","B1","B1","PISd",0,0,0,0,"B1", 0,15,   0, 0,    0,"AIS","N/A    ","OK ","OK ",    000974.096,    -086.388,    0017.727,    0008.302,    0066.991
"FRM_AIS_EDR_2228.DAT           ",2005-10-08T13:59:05.37 ,"1/0076859940.20468",    0,   21,  274896,"AIS","B1","B1","B1","B1","PISd",0,0,0,0,"B1", 0,15,   0, 0,    0,"AIS","N/A    ","OK ","OK ",    000964.425,    -086.242,    0022.807,    0008.643,    0066.644
"FRM_AIS_EDR_2228.DAT           ",2005-10-08T13:59:12.91 ,"1/0076859947.56068",    0,   22,  274896,"AIS","B1","B1","B1","B1","PISd",0,0,0,0,"B1", 0,15,   0, 0,    0,"AIS","N/A    ","OK ","OK ",    000954.796,    -086.067,    0027.489,    0008.957,    0066.295
"FRM_AIS_EDR_2228.DAT           ",2005-10-08T13:59:20.46 ,"1/0076859955.26131",    0,   23,  274896,"AIS","B1","B1","B1","B1","PISd",0,0,0,0,"B1", 0,15,   0, 0,    0,"AIS","N/A    ","OK ","OK ",    000945.208,    -085.867,    0031.763,    0009.244,    0065.944
"FRM_AIS_EDR_2228.DAT           ",2005-10-08T13:59:28.00 ,"1/0076859962.61730",    0,   24,  274896,"AIS","B1","B1","B1","B1","PISd",0,0,0,0,"B1", 0,15,   0, 0,    0,"AIS","N/A    ","OK ","OK ",    000935.662,    -085.645,    0035.638,    0009.504,    0065.592
"FRM_AIS_EDR_2228.DAT           ",2005-10-08T13:59:35.54 ,"1/0076859970.31794",    0,   25,  274896,"AIS","B1","B1","B1","B1","PISd",0,0,0,0,"B1", 0,15,   0, 0,    0,"AIS","N/A    ","OK ","OK ",    000926.159,    -085.404,    0039.134,    0009.739,    0065.238
"FRM_AIS_EDR_2228.DAT           ",2005-10-08T13:59:43.09 ,"1/0076859978.01857",    0,   26,  274896,"AIS","B1","B1","B1","B1","PISd",0,0,0,0,"B1", 0,15,   0, 0,    0,"AIS","N/A    ","OK ","OK ",    000916.699,    -085.146,    0042.283,    0009.951,    0064.883
"FRM_AIS_EDR_2228.DAT           ",2005-10-08T13:59:50.63 ,"1/0076859985.37456",    0,   27,  274896,"AIS","B1","B1","B1","B1","PISd",0,0,0,0,"B1", 0,15,   0, 0,    0,"AIS","N/A    ","OK ","OK ",    000907.284,    -084.873,    0045.115,    0010.142,    0064.526
"FRM_AIS_EDR_2228.DAT           ",2005-10-08T13:59:58.17 ,"1/0076859993.07520",    0,   28,  274896,"AIS","B1","B1","B1","B1","PISd",0,0,0,0,"B1", 0,15,   0, 0,    0,"AIS","N/A    ","OK ","OK ",    000897.913,    -084.588,    0047.664,    0010.314,    0064.168
"FRM_AIS_EDR_2228.DAT           ",2005-10-08T14:00:05.71 ,"1/0076860000.43119",    0,   29,  274896,"AIS","B1","B1","B1","B1","PISd",0,0,0,0,"B1", 0,15,   0, 0,    0,"AIS","N/A    ","OK ","OK ",    000888.587,    -084.292,    0049.960,    0010.469,    0063.808
"FRM_AIS_EDR_2228.DAT           ",2005-10-08T14:00:13.26 ,"1/0076860008.13182",    0,   30,  274896,"AIS","B1","B1","B1","B1","PISd",0,0,0,0,"B1", 0,15,   0, 0,    0,"AIS","N/A    ","OK ","OK ",    000879.306,    -083.986,    0052.034,    0010.609,    0063.447
"FRM_AIS_EDR_2228.DAT           ",2005-10-08T14:00:20.80 ,"1/0076860015.48782",    0,   31,  274896,"AIS","B1","B1","B1","B1","PISd",0,0,0,0,"B1", 0,15,   0, 0,    0,"AIS","N/A    ","OK ","OK ",    000870.072,    -083.671,    0053.910,    0010.737,    0063.084
"FRM_AIS_EDR_2228.DAT           ",2005-10-08T14:00:28.34 ,"1/0076860023.18845",    0,   32,  274896,"AIS","B1","B1","B1","B1","PISd",0,0,0,0,"B1", 0,15,   0, 0,    0,"AIS","N/A    ","OK ","OK ",    000860.885,    -083.348,    0055.611,    0010.852,    0062.720
"FRM_AIS_EDR_2228.DAT           ",2005-10-08T14:00:35.89 ,"1/0076860030.54444",    0,   33,  274896,"AIS","B1","B1","B1","B1","PISd",0,0,0,0,"B1", 0,15,   0, 0,    0,"AIS","N/A    ","OK ","OK ",    000851.745,    -083.019,    0057.158,    0010.957,    0062.354
"FRM_AIS_EDR_2228.DAT           ",2005-10-08T14:00:43.43 ,"1/0076860038.24508",    0,   34,  274896,"AIS","B1","B1","B1","B1","PISd",0,0,0,0,"B1", 0,15,   0, 0,    0,"AIS","N/A    ","OK ","OK ",    000842.653,    -082.683,    0058.569,    0011.053,    0061.986
"FRM_AIS_EDR_2228.DAT           ",2005-10-08T14:00:50.97 ,"1/0076860045.60107",    0,   35,  274896,"AIS","B1","B1","B1","B1","PISd",0,0,0,0,"B1", 0,15,   0, 0,    0,"AIS","N/A    ","OK ","OK ",    000833.610,    -082.342,    0059.858,    0011.141,    0061.617
"FRM_AIS_EDR_2228.DAT           ",2005-10-08T14:00:58.52 ,"1/0076860053.30170",    0,   36,  274896,"AIS","B1","B1","B1","B1","PISd",0,0,0,0,"B1", 0,15,   0, 0,    0,"AIS","N/A    ","OK ","OK ",    000824.617,    -081.996,    0061.040,    0011.222,    0061.247
"FRM_AIS_EDR_2228.DAT           ",2005-10-08T14:01:06.06 ,"1/0076860061.00234",    0,   37,  274896,"AIS","B1","B1","B1","B1","PISd",0,0,0,0,"B1", 0,15,   0, 0,    0,"AIS","N/A    ","OK ","OK ",    000815.673,    -081.644,    0062.126,    0011.297,    0060.875
"FRM_AIS_EDR_2228.DAT           ",2005-10-08T14:01:13.60 ,"1/0076860068.35833",    0,   38,  274896,"AIS","B1","B1","B1","B1","PISd",0,0,0,0,"B1", 0,15,   0, 0,    0,"AIS","N/A    ","OK ","OK ",    000806.779,    -081.289,    0063.126,    0011.365,    0060.501
"FRM_AIS_EDR_2228.DAT           ",2005-10-08T14:01:21.15 ,"1/0076860076.05896",    0,   39,  274896,"AIS","B1","B1","B1","B1","PISd",0,0,0,0,"B1", 0,15,   0, 0,    0,"AIS","N/A    ","OK ","OK ",    000797.937,    -080.929,    0064.050,    0011.429,    0060.126
"FRM_AIS_EDR_2228.DAT           ",2005-10-08T14:01:28.69 ,"1/0076860083.41496",    0,   40,  274896,"AIS","B1","B1","B1","B1","PISd",0,0,0,0,"B1", 0,15,   0, 0,    0,"AIS","N/A    ","OK ","OK ",    000789.146,    -080.566,    0064.905,    0011.488,    0059.749
"FRM_AIS_EDR_2228.DAT           ",2005-10-08T14:01:36.23 ,"1/0076860091.11559",    0,   41,  274896,"AIS","B1","B1","B1","B1","PISd",0,0,0,0,"B1", 0,15,   0, 0,    0,"AIS","N/A    ","OK ","OK ",    000780.407,    -080.199,    0065.697,    0011.543,    0059.371
"FRM_AIS_EDR_2228.DAT           ",2005-10-08T14:01:43.78 ,"1/0076860098.47158",    0,   42,  274896,"AIS","B1","B1","B1","B1","PISd",0,0,0,0,"B1", 0,15,   0, 0,    0,"AIS","N/A    ","OK ","OK ",    000771.722,    -079.828,    0066.434,    0011.594,    0058.992
"FRM_AIS_EDR_2228.DAT           ",2005-10-08T14:01:51.32 ,"1/0076860106.17222",    0,   43,  274896,"AIS","B1","B1","B1","B1","PISd",0,0,0,0,"B1", 0,15,   0, 0,    0,"AIS","N/A    ","OK ","OK ",    000763.090,    -079.455,    0067.121,    0011.642,    0058.610
"FRM_AIS_EDR_2228.DAT           ",2005-10-08T14:01:58.86 ,"1/0076860113.52821",    0,   44,  274896,"AIS","B1","B1","B1","B1","PISd",0,0,0,0,"B1", 0,15,   0, 0,    0,"AIS","N/A    ","OK ","OK ",    000754.512,    -079.078,    0067.761,    0011.686,    0058.228
"FRM_AIS_EDR_2228.DAT           ",2005-10-08T14:02:06.41 ,"1/0076860121.22885",    0,   45,  274896,"AIS","B1","B1","B1","B1","PISd",0,0,0,0,"B1", 0,15,   0, 0,    0,"AIS","N/A    ","OK ","OK ",    000745.989,    -078.698,    0068.359,    0011.728,    0057.843
"FRM_AIS_EDR_2228.DAT           ",2005-10-08T14:02:13.95 ,"1/0076860128.58484",    0,   46,  274896,"AIS","B1","B1","B1","B1","PISd",0,0,0,0,"B1", 0,15,   0, 0,    0,"AIS","N/A    ","OK ","OK ",    000737.522,    -078.316,    0068.920,    0011.768,    0057.458
"FRM_AIS_EDR_2228.DAT           ",2005-10-08T14:02:21.49 ,"1/0076860136.28547",    0,   47,  274896,"AIS","B1","B1","B1","B1","PISd",0,0,0,0,"B1", 0,15,   0, 0,    0,"AIS","N/A    ","OK ","OK ",    000729.110,    -077.931,    0069.445,    0011.805,    0057.070
"FRM_AIS_EDR_2228.DAT           ",2005-10-08T14:02:29.04 ,"1/0076860143.64147",    0,   48,  274896,"AIS","B1","B1","B1","B1","PISd",0,0,0,0,"B1", 0,15,   0, 0,    0,"AIS","N/A    ","OK ","OK ",    000720.755,    -077.543,    0069.939,    0011.840,    0056.682
"FRM_AIS_EDR_2228.DAT           ",2005-10-08T14:02:36.58 ,"1/0076860151.34210",    0,   49,  274896,"AIS","B1","B1","B1","B1","PISd",0,0,0,0,"B1", 0,15,   0, 0,    0,"AIS","N/A    ","OK ","OK ",    000712.458,    -077.153,    0070.403,    0011.873,    0056.291
"FRM_AIS_EDR_2228.DAT           ",2005-10-08T14:02:44.12 ,"1/0076860159.04273",    0,   50,  274896,"AIS","B1","B1","B1","B1","PISd",0,0,0,0,"B1", 0,15,   0, 0,    0,"AIS","N/A    ","OK ","OK ",    000704.219,    -076.760,    0070.841,    0011.904,    0055.899
"FRM_AIS_EDR_2228.DAT           ",2005-10-08T14:02:51.67 ,"1/0076860166.39873",    0,   51,  274896,"AIS","B1","B1","B1","B1","PISd",0,0,0,0,"B1", 0,15,   0, 0,    0,"AIS","N/A    ","OK ","OK ",    000696.038,    -076.365,    0071.254,    0011.934,    0055.506
"FRM_AIS_EDR_2228.DAT           ",2005-10-08T14:02:59.21 ,"1/0076860174.09936",    0,   52,  274896,"AIS","B1","B1","B1","B1","PISd",0,0,0,0,"B1", 0,15,   0, 0,    0,"AIS","N/A    ","OK ","OK ",    000687.917,    -075.967,    0071.643,    0011.962,    0055.111
"FRM_AIS_EDR_2228.DAT           ",2005-10-08T14:03:06.75 ,"1/0076860181.45535",    0,   53,  274896,"AIS","B1","B1","B1","B1","PISd",0,0,0,0,"B1", 0,15,   0, 0,    0,"AIS","N/A    ","OK ","OK ",    000679.855,    -075.568,    0072.012,    0011.988,    0054.715
"FRM_AIS_EDR_2228.DAT           ",2005-10-08T14:03:14.29 ,"1/0076860189.15599",    0,   54,  274896,"AIS","B1","B1","B1","B1","PISd",0,0,0,0,"B1", 0,15,   0, 0,    0,"AIS","N/A    ","OK ","OK ",    000671.854,    -075.166,    0072.361,    0012.014,    0054.317
"FRM_AIS_EDR_2228.DAT           ",2005-10-08T14:03:21.84 ,"1/0076860196.51198",    0,   55,  274896,"AIS","B1","B1","B1","B1","PISd",0,0,0,0,"B1", 0,15,   0, 0,    0,"AIS","N/A    ","OK ","OK ",    000663.915,    -074.762,    0072.692,    0012.037,    0053.918
"FRM_AIS_EDR_2228.DAT           ",2005-10-08T14:03:29.38 ,"1/0076860204.21261",    0,   56,  274896,"AIS","B1","B1","B1","B1","PISd",0,0,0,0,"B1", 0,15,   0, 0,    0,"AIS","N/A    ","OK ","OK ",    000656.037,    -074.355,    0073.005,    0012.061,    0053.517
"FRM_AIS_EDR_2228.DAT           ",2005-10-08T14:03:36.92 ,"1/0076860211.56861",    0,   57,  274896,"AIS","B1","B1","B1","B1","PISd",0,0,0,0,"B1", 0,15,   0, 0,    0,"AIS","N/A    ","OK ","OK ",    000648.222,    -073.947,    0073.303,    0012.082,    0053.115
"FRM_AIS_EDR_2228.DAT           ",2005-10-08T14:03:44.47 ,"1/0076860219.26924",    0,   58,  274896,"AIS","B1","B1","B1","B1","PISd",0,0,0,0,"B1", 0,15,   0, 0,    0,"AIS","N/A    ","OK ","OK ",    000640.470,    -073.537,    0073.587,    0012.103,    0052.712
"FRM_AIS_EDR_2228.DAT           ",2005-10-08T14:03:52.01 ,"1/0076860226.62523",    0,   59,  274896,"AIS","B1","B1","B1","B1","PISd",0,0,0,0,"B1", 0,15,   0, 0,    0,"AIS","N/A    ","OK ","OK ",    000632.782,    -073.124,    0073.856,    0012.123,    0052.307
"FRM_AIS_EDR_2228.DAT           ",2005-10-08T14:03:59.55 ,"1/0076860234.32586",    0,   60,  274896,"AIS","B1","B1","B1","B1","PISd",0,0,0,0,"B1", 0,15,   0, 0,    0,"AIS","N/A    ","OK ","OK ",    000625.158,    -072.710,    0074.113,    0012.143,    0051.900
"FRM_AIS_EDR_2228.DAT           ",2005-10-08T14:04:07.10 ,"1/0076860242.02650",    0,   61,  274896,"AIS","B1","B1","B1","B1","PISd",0,0,0,0,"B1", 0,15,   0, 0,    0,"AIS","N/A    ","OK ","OK ",    000617.600,    -072.294,    0074.357,    0012.161,    0051.492
"FRM_AIS_EDR_2228.DAT           ",2005-10-08T14:04:14.64 ,"1/0076860249.38249",    0,   62,  274896,"AIS","B1","B1","B1","B1","PISd",0,0,0,0,"B1", 0,15,   0, 0,    0,"AIS","N/A    ","OK ","OK ",    000610.108,    -071.876,    0074.591,    0012.179,    0051.083
"FRM_AIS_EDR_2228.DAT           ",2005-10-08T14:04:22.18 ,"1/0076860257.08312",    0,   63,  274896,"AIS","B1","B1","B1","B1","PISd",0,0,0,0,"B1", 0,15,   0, 0,    0,"AIS","N/A    ","OK ","OK ",    000602.682,    -071.455,    0074.813,    0012.195,    0050.672
"FRM_AIS_EDR_2228.DAT           ",2005-10-08T14:04:29.73 ,"1/0076860264.43912",    0,   64,  274896,"AIS","B1","B1","B1","B1","PISd",0,0,0,0,"B1", 0,15,   0, 0,    0,"AIS","N/A    ","OK ","OK ",    000595.323,    -071.033,    0075.026,    0012.212,    0050.260
"FRM_AIS_EDR_2228.DAT           ",2005-10-08T14:04:37.27 ,"1/0076860272.13975",    0,   65,  274896,"AIS","B1","B1","B1","B1","PISd",0,0,0,0,"B1", 0,15,   0, 0,    0,"AIS","N/A    ","OK ","OK ",    000588.032,    -070.610,    0075.229,    0012.227,    0049.846
"FRM_AIS_EDR_2228.DAT           ",2005-10-08T14:04:44.81 ,"1/0076860279.49574",    0,   66,  274896,"AIS","B1","B1","B1","B1","PISd",0,0,0,0,"B1", 0,15,   0, 0,    0,"AIS","N/A    ","OK ","OK ",    000580.810,    -070.184,    0075.424,    0012.242,    0049.431
"FRM_AIS_EDR_2228.DAT           ",2005-10-08T14:04:52.36 ,"1/0076860287.19638",    0,   67,  274896,"AIS","B1","B1","B1","B1","PISd",0,0,0,0,"B1", 0,15,   0, 0,    0,"AIS","N/A    ","OK ","OK ",    000573.657,    -069.757,    0075.610,    0012.257,    0049.015
"FRM_AIS_EDR_2228.DAT           ",2005-10-08T14:04:59.90 ,"1/0076860294.55237",    0,   68,  274896,"AIS","B1","B1","B1","B1","PISd",0,0,0,0,"B1", 0,15,   0, 0,    0,"AIS","N/A    ","OK ","OK ",    000566.574,    -069.327,    0075.788,    0012.271,    0048.597
"FRM_AIS_EDR_2228.DAT           ",2005-10-08T14:05:07.44 ,"1/0076860302.25300",    0,   69,  274896,"AIS","B1","B1","B1","B1","PISd",0,0,0,0,"B1", 0,15,   0, 0,    0,"AIS","N/A    ","OK ","OK ",    000559.561,    -068.896,    0075.959,    0012.284,    0048.178
"FRM_AIS_EDR_2228.DAT           ",2005-10-08T14:05:14.99 ,"1/0076860309.60900",    0,   70,  274896,"AIS","B1","B1","B1","B1","PISd",0,0,0,0,"B1", 0,15,   0, 0,    0,"AIS","N/A    ","OK ","OK ",    000552.619,    -068.464,    0076.123,    0012.297,    0047.758
"FRM_AIS_EDR_2228.DAT           ",2005-10-08T14:05:22.53 ,"1/0076860317.30963",    0,   71,  274896,"AIS","B1","B1","B1","B1","PISd",0,0,0,0,"B1", 0,15,   0, 0,    0,"AIS","N/A    ","OK ","OK ",    000545.750,    -068.029,    0076.280,    0012.309,    0047.336
"FRM_AIS_EDR_2228.DAT           ",2005-10-08T14:05:30.07 ,"1/0076860325.01026",    0,   72,  274896,"AIS","B1","B1","B1","B1","PISd",0,0,0,0,"B1", 0,15,   0, 0,    0,"AIS","N/A    ","OK ","OK ",    000538.952,    -067.593,    0076.431,    0012.322,    0046.913
"FRM_AIS_EDR_2228.DAT           ",2005-10-08T14:05:37.62 ,"1/0076860332.36626",    0,   73,  274896,"AIS","B1","B1","B1","B1","PISd",0,0,0,0,"B1", 0,15,   0, 0,    0,"AIS","N/A    ","OK ","OK ",    000532.228,    -067.155,    0076.576,    0012.333,    0046.489
"FRM_AIS_EDR_2228.DAT           ",2005-10-08T14:05:45.16 ,"1/0076860340.06689",    0,   74,  274896,"AIS","B1","B1","B1","B1","PISd",0,0,0,0,"B1", 0,15,   0, 0,    0,"AIS","N/A    ","OK ","OK ",    000525.578,    -066.716,    0076.715,    0012.344,    0046.064
"FRM_AIS_EDR_2228.DAT           ",2005-10-08T14:05:52.70 ,"1/0076860347.42288",    0,   75,  274896,"AIS","B1","B1","B1","B1","PISd",0,0,0,0,"B1", 0,15,   0, 0,    0,"AIS","N/A    ","OK ","OK ",    000519.002,    -066.274,    0076.849,    0012.356,    0045.637
"FRM_AIS_EDR_2228.DAT           ",2005-10-08T14:06:00.25 ,"1/0076860355.12352",    0,   76,  274896,"AIS","B1","B1","B1","B1","PISd",0,0,0,0,"B1", 0,15,   0, 0,    0,"AIS","N/A    ","OK ","OK ",    000512.502,    -065.832,    0076.977,    0012.366,    0045.209
"FRM_AIS_EDR_2228.DAT           ",2005-10-08T14:06:07.79 ,"1/0076860362.47951",    0,   77,  274896,"AIS","B1","B1","B1","B1","PISd",0,0,0,0,"B1", 0,15,   0, 0,    0,"AIS","N/A    ","OK ","OK ",    000506.077,    -065.387,    0077.101,    0012.376,    0044.780
"FRM_AIS_EDR_2228.DAT           ",2005-10-08T14:06:15.33 ,"1/0076860370.18014",    0,   78,  274896,"AIS","B1","B1","B1","B1","PISd",0,0,0,0,"B1", 0,15,   0, 0,    0,"AIS","N/A    ","OK ","OK ",    000499.729,    -064.941,    0077.220,    0012.386,    0044.349
"FRM_AIS_EDR_2228.DAT           ",2005-10-08T14:06:22.87 ,"1/0076860377.53614",    0,   79,  274896,"AIS","B1","B1","B1","B1","PISd",0,0,0,0,"B1", 0,15,   0, 0,    0,"AIS","N/A    ","OK ","OK ",    000493.457,    -064.494,    0077.334,    0012.396,    0043.918
"FRM_AIS_EDR_2228.DAT           ",2005-10-08T14:06:30.42 ,"1/0076860385.23677",    0,   80,  274896,"AIS","B1","B1","B1","B1","PISd",0,0,0,0,"B1", 0,15,   0, 0,    0,"AIS","N/A    ","OK ","OK ",    000487.264,    -064.044,    0077.445,    0012.406,    0043.485
"FRM_AIS_EDR_2228.DAT           ",2005-10-08T14:06:37.96 ,"1/0076860392.59276",    0,   81,  274896,"AIS","B1","B1","B1","B1","PISd",0,0,0,0,"B1", 0,15,   0, 0,    0,"AIS","N/A    ","OK ","OK ",    000481.149,    -063.594,    0077.551,    0012.414,    0043.051
"FRM_AIS_EDR_2228.DAT           ",2005-10-08T14:06:45.50 ,"1/0076860400.29340",    0,   82,  274896,"AIS","B1","B1","B1","B1","PISd",0,0,0,0,"B1", 0,15,   0, 0,    0,"AIS","N/A    ","OK ","OK ",    000475.113,    -063.142,    0077.653,    0012.423,    0042.616
"FRM_AIS_EDR_2228.DAT           ",2005-10-08T14:06:53.05 ,"1/0076860407.64939",    0,   83,  274896,"AIS","B1","B1","B1","B1","PISd",0,0,0,0,"B1", 0,15,   0, 0,    0,"AIS","N/A    ","OK ","OK ",    000469.157,    -062.688,    0077.752,    0012.432,    0042.180
"FRM_AIS_EDR_2228.DAT           ",2005-10-08T14:07:00.59 ,"1/0076860415.35002",    0,   84,  274896,"AIS","B1","B1","B1","B1","PISd",0,0,0,0,"B1", 0,15,   0, 0,    0,"AIS","N/A    ","OK ","OK ",    000463.281,    -062.233,    0077.847,    0012.441,    0041.743
"FRM_AIS_EDR_2228.DAT           ",2005-10-08T14:07:08.13 ,"1/0076860423.05066",    0,   85,  274896,"AIS","B1","B1","B1","B1","PISd",0,0,0,0,"B1", 0,15,   0, 0,    0,"AIS","N/A    ","OK ","OK ",    000457.486,    -061.776,    0077.939,    0012.449,    0041.305
"FRM_AIS_EDR_2228.DAT           ",2005-10-08T14:07:15.68 ,"1/0076860430.40665",    0,   86,  274896,"AIS","B1","B1","B1","B1","PISd",0,0,0,0,"B1", 0,15,   0, 0,    0,"AIS","N/A    ","OK ","OK ",    000451.773,    -061.318,    0078.028,    0012.457,    0040.865
"FRM_AIS_EDR_2228.DAT           ",2005-10-08T14:07:23.22 ,"1/0076860438.10728",    0,   87,  274896,"AIS","B1","B1","B1","B1","PISd",0,0,0,0,"B1", 0,15,   0, 0,    0,"AIS","N/A    ","OK ","OK ",    000446.142,    -060.858,    0078.113,    0012.464,    0040.425
"FRM_AIS_EDR_2228.DAT           ",2005-10-08T14:07:30.76 ,"1/0076860445.46328",    0,   88,  274896,"AIS","B1","B1","B1","B1","PISd",0,0,0,0,"B1", 0,15,   0, 0,    0,"AIS","N/A    ","OK ","OK ",    000440.593,    -060.397,    0078.196,    0012.472,    0039.984
"FRM_AIS_EDR_2228.DAT           ",2005-10-08T14:07:38.31 ,"1/0076860453.16391",    0,   89,  274896,"AIS","B1","B1","B1","B1","PISd",0,0,0,0,"B1", 0,15,   0, 0,    0,"AIS","N/A    ","OK ","OK ",    000435.129,    -059.935,    0078.275,    0012.479,    0039.542
"FRM_AIS_EDR_2228.DAT           ",2005-10-08T14:07:45.85 ,"1/0076860460.51990",    0,   90,  274896,"AIS","B1","B1","B1","B1","PISd",0,0,0,0,"B1", 0,15,   0, 0,    0,"AIS","N/A    ","OK ","OK ",    000429.748,    -059.471,    0078.352,    0012.486,    0039.099